Stations météo

réclame
Mon MeteoGroup
Jaen, Espagne (8417): Température de l'air & dewpoint: 18.10.2018 07:00:00 - 24.10.2018 07:00:00 (CEST)Jaen, Espagne (8417): Vitesse du vent: 18.10.2018 07:00:00 - 24.10.2018 07:00:00 (CEST)Jaen, Espagne (8417): Direction du vent: 18.10.2018 07:00:00 - 24.10.2018 07:00:00 (CEST)Jaen, Espagne (8417): reduced air pressure: 18.10.2018 07:00:00 - 24.10.2018 07:00:00 (CEST)Jaen, Espagne (8417): visibility: 18.10.2018 07:00:00 - 24.10.2018 07:00:00 (CEST)Jaen, Espagne (8417): Quantités de précipitations: 18.10.2018 07:00:00 - 24.10.2018 07:00:00 (CEST)
Date & Time tt [°C] td [°C] ff [km/h] ff [knt] dd ppp [hPa] vv [km] rr [mm]
24.10.2018 07:00:00 - - - - - - - -
24.10.2018 06:00:00 14,1 12,8 2 1 W 1025,7 18 0,0
24.10.2018 05:00:00 14,2 12,6 4 2 SSW 1025,4 19 -
24.10.2018 04:00:00 14,5 12,7 4 2 SSW 1025,7 20 0,0
24.10.2018 03:00:00 14,8 11,9 4 2 SW 1026,2 18 0,0
24.10.2018 02:00:00 15,3 11,7 5 3 WSW 1025,8 18 -
24.10.2018 01:00:00 15,8 11,8 5 3 S 1025,8 12 0,0
24.10.2018 00:00:00 16,6 10,9 4 2 W 1025,7 20 0,0
23.10.2018 23:00:00 17,7 11,3 9 5 WSW 1025,2 20 -
23.10.2018 22:00:00 17,2 11,2 9 5 WSW 1024,8 20 0,0
23.10.2018 21:00:00 18,1 10,7 9 5 WSW 1024,3 20 0,0
23.10.2018 20:00:00 18,2 11,3 9 5 WSW 1024,0 20 -
23.10.2018 19:00:00 19,0 11,8 9 5 SW 1023,1 20 0,0
23.10.2018 18:00:00 20,9 12,8 4 2 SSW 1022,8 20 0,0
23.10.2018 17:00:00 22,4 11,5 4 2 N 1022,6 19 -
23.10.2018 16:00:00 22,8 11,5 4 2 NW 1022,6 18 0,0
23.10.2018 15:00:00 22,4 11,5 9 5 NNW 1023,0 20 0,0
23.10.2018 14:00:00 22,9 11,9 9 5 N 1023,2 20 -
23.10.2018 13:00:00 22,1 10,6 8 4 ESE 1023,6 20 0,0
23.10.2018 12:00:00 21,0 11,3 9 5 ESE 1023,9 20 0,0
23.10.2018 11:00:00 19,6 11,4 11 6 ESE 1024,0 20 -
23.10.2018 10:00:00 17,9 10,8 13 7 SE 1023,9 20 0,0
23.10.2018 09:00:00 17,1 10,5 16 9 SSE 1023,0 20 0,0
23.10.2018 08:00:00 17,1 10,9 18 10 SSE 1022,1 20 -
23.10.2018 07:00:00 17,3 10,7 18 10 SSE 1022,1 20 0,0
23.10.2018 06:00:00 17,4 10,7 16 9 SSE 1022,2 20 0,0
23.10.2018 05:00:00 17,9 10,5 16 9 SSE 1022,2 20 -
23.10.2018 04:00:00 18,1 10,5 16 9 S 1021,9 20 0,0
23.10.2018 03:00:00 18,2 11,5 11 6 SSE 1022,0 20 0,0
23.10.2018 02:00:00 18,8 11,4 18 10 SSE 1021,8 20 -
23.10.2018 01:00:00 19,0 11,6 16 9 SE 1021,6 20 0,0
23.10.2018 00:00:00 19,0 11,8 13 7 SSE 1021,3 20 0,0
22.10.2018 23:00:00 16,8 12,9 5 3 SSW 1021,5 20 -
22.10.2018 22:00:00 17,7 12,8 5 3 SSW 1020,8 20 0,0
22.10.2018 21:00:00 18,3 12,7 9 5 SW 1020,3 20 0,0
22.10.2018 20:00:00 18,3 12,9 8 4 SW 1019,6 20 -
22.10.2018 19:00:00 19,5 13,4 8 4 SW 1019,0 20 0,0
22.10.2018 18:00:00 20,2 13,9 8 4 SW 1018,6 20 0,0
22.10.2018 17:00:00 22,0 13,9 4 2 SW 1018,0 20 -
22.10.2018 16:00:00 23,4 12,7 5 3 N 1018,0 20 0,0
22.10.2018 15:00:00 22,8 14,1 4 2 N 1018,5 17 0,0
22.10.2018 14:00:00 22,3 14,2 5 3 N 1019,0 20 -
22.10.2018 13:00:00 21,2 13,9 4 2 NE 1019,9 20 0,0
22.10.2018 12:00:00 20,2 14,3 2 1 ENE 1020,2 14 0,0
22.10.2018 11:00:00 18,7 13,8 4 2 ESE 1020,5 20 -
22.10.2018 10:00:00 15,1 13,1 4 2 ESE 1021,4 16 0,0
22.10.2018 09:00:00 13,7 12,4 2 1 NNW 1021,3 17 0,0
22.10.2018 08:00:00 14,8 12,7 4 2 WNW 1020,5 20 -
22.10.2018 07:00:00 16,0 12,9 9 5 SSE 1020,0 20 0,0
22.10.2018 06:00:00 14,9 13,1 4 2 S 1020,1 20 0,0
22.10.2018 05:00:00 14,5 13,2 5 3 S 1020,3 20 -
22.10.2018 04:00:00 14,6 12,8 4 2 SW 1020,7 20 0,0
22.10.2018 03:00:00 14,7 13,2 4 2 SW 1020,8 20 0,0
22.10.2018 02:00:00 15,2 13,6 4 2 SW 1020,7 20 -
22.10.2018 01:00:00 15,2 14,1 0 0 N 1020,8 17 0,0
22.10.2018 00:00:00 15,5 14,2 4 2 SW 1020,4 8 0,0
21.10.2018 23:00:00 16,2 14,7 2 1 S 1019,7 6 -
21.10.2018 22:00:00 17,2 15,2 4 2 WNW 1018,6 19 0,0
21.10.2018 21:00:00 18,0 14,9 2 1 SE 1018,3 19 0,0
21.10.2018 20:00:00 18,5 14,8 4 2 SSW 1017,6 20 -
21.10.2018 19:00:00 20,2 15,4 5 3 W 1016,4 20 0,0
21.10.2018 18:00:00 20,7 15,5 5 3 WNW 1015,9 20 0,0
21.10.2018 17:00:00 20,8 14,9 13 7 WNW 1016,1 20 -
21.10.2018 16:00:00 21,5 15,8 16 9 W 1016,0 20 0,0
21.10.2018 15:00:00 21,8 15,9 13 7 WNW 1016,3 20 0,0
21.10.2018 14:00:00 23,1 13,8 4 2 N 1016,9 20 -
21.10.2018 13:00:00 21,9 14,8 5 3 ENE 1017,4 20 0,0
21.10.2018 12:00:00 21,0 14,4 5 3 ENE 1017,8 20 0,0
21.10.2018 11:00:00 18,6 13,7 5 3 E 1018,3 20 -
21.10.2018 10:00:00 16,6 12,9 9 5 E 1018,7 20 0,0
21.10.2018 09:00:00 17,2 12,9 8 4 SSE 1018,0 20 0,0
21.10.2018 08:00:00 18,7 12,7 18 10 SE 1017,1 20 -
21.10.2018 07:00:00 18,9 12,6 26 14 SE 1016,8 20 0,0
21.10.2018 06:00:00 18,8 12,5 21 11 SE 1016,5 19 0,0
21.10.2018 05:00:00 18,7 12,2 18 10 SE 1016,3 20 -
21.10.2018 04:00:00 19,0 12,0 29 16 SE 1016,4 20 0,0
21.10.2018 03:00:00 19,1 11,9 31 17 SE 1016,6 20 0,0
21.10.2018 02:00:00 18,8 12,1 26 14 SE 1016,7 20 -
21.10.2018 01:00:00 18,8 12,1 34 18 SE 1016,7 20 0,0
21.10.2018 00:00:00 18,8 11,8 34 18 SE 1016,5 20 0,0
20.10.2018 23:00:00 18,6 11,7 29 16 SE 1016,1 20 -
20.10.2018 22:00:00 18,5 12,0 22 12 SE 1015,8 20 0,0
20.10.2018 21:00:00 18,6 11,9 24 13 SE 1015,5 20 0,0
20.10.2018 20:00:00 18,6 12,1 22 12 SE 1014,8 20 -
20.10.2018 19:00:00 18,8 12,3 22 12 SE 1014,1 20 0,0
20.10.2018 18:00:00 18,6 12,3 28 15 SE 1013,5 20 0,2
20.10.2018 17:00:00 16,3 13,2 5 3 ENE 1015,0 18 -
20.10.2018 16:00:00 15,5 12,6 2 1 SW 1015,8 20 0,0
20.10.2018 15:00:00 15,3 13,0 4 2 NE 1016,3 20 0,0
20.10.2018 14:00:00 16,7 11,8 15 8 SE 1016,6 20 -
20.10.2018 13:00:00 15,7 11,7 15 8 SE 1016,6 20 0,2
20.10.2018 12:00:00 14,7 10,7 11 6 ESE 1017,2 16 0,2
20.10.2018 11:00:00 15,0 10,0 8 4 E 1016,1 20 -
20.10.2018 10:00:00 14,3 9,7 8 4 ESE 1015,7 20 0,0
20.10.2018 09:00:00 15,5 9,2 21 11 SE 1014,4 20 0,0
20.10.2018 08:00:00 12,5 8,2 4 2 S 1015,1 20 -
20.10.2018 07:00:00 14,8 8,3 11 6 E 1014,5 20 0,0
20.10.2018 06:00:00 15,4 7,7 21 11 SE 1013,7 20 0,0
20.10.2018 05:00:00 15,2 6,5 26 14 SE 1013,6 20 -
20.10.2018 04:00:00 15,1 5,9 22 12 SE 1014,2 20 0,0
20.10.2018 03:00:00 15,7 5,6 28 15 SE 1014,0 20 0,0
20.10.2018 02:00:00 14,9 7,4 16 9 SSE 1014,6 20 -
20.10.2018 01:00:00 14,3 8,3 15 8 S 1014,8 20 0,0
20.10.2018 00:00:00 13,0 9,6 5 3 SSW 1015,2 20 0,0
19.10.2018 23:00:00 13,1 9,3 4 2 SSW 1015,3 20 -
19.10.2018 22:00:00 14,1 10,3 8 4 SW 1014,6 20 0,0
19.10.2018 21:00:00 14,5 9,9 4 2 SW 1013,9 20 0,0
19.10.2018 20:00:00 15,4 10,4 8 4 WSW 1012,8 20 -
19.10.2018 19:00:00 16,1 10,6 8 4 SW 1011,7 20 0,0
19.10.2018 18:00:00 17,4 11,9 8 4 W 1011,1 20 0,0
19.10.2018 17:00:00 17,5 11,1 4 2 WSW 1011,0 20 -
19.10.2018 16:00:00 17,1 11,4 2 1 NNW 1011,1 20 0,0
19.10.2018 15:00:00 16,8 11,5 5 3 NNW 1011,1 20 0,0
19.10.2018 14:00:00 17,0 11,9 5 3 NE 1011,4 20 -
19.10.2018 13:00:00 16,9 11,8 9 5 ENE 1011,7 20 0,0
19.10.2018 12:00:00 15,8 10,3 13 7 ESE 1011,5 20 0,0
19.10.2018 11:00:00 14,5 8,9 15 8 SE 1012,1 20 -
19.10.2018 10:00:00 13,2 8,7 15 8 SSE 1012,2 20 0,0
19.10.2018 09:00:00 8,8 8,5 5 3 S 1012,5 17 0,0
19.10.2018 08:00:00 8,8 8,5 4 2 S 1012,2 20 -
19.10.2018 07:00:00 9,3 8,8 5 3 W 1011,8 20 0,0
19.10.2018 06:00:00 9,6 9,0 4 2 W 1011,6 20 0,0
19.10.2018 05:00:00 9,5 9,2 4 2 SSW 1011,1 20 -
19.10.2018 04:00:00 9,6 9,1 5 3 W 1011,4 20 0,0
19.10.2018 03:00:00 10,1 9,6 5 3 WSW 1011,9 9 0,0
19.10.2018 02:00:00 10,7 10,5 4 2 ENE 1011,2 2,8 -
19.10.2018 01:00:00 10,9 10,7 4 2 N 1011,6 0,6 0,0
19.10.2018 00:00:00 10,8 10,5 5 3 ESE 1011,8 10 0,0
18.10.2018 23:00:00 10,8 10,6 4 2 ENE 1012,4 8 -
18.10.2018 22:00:00 10,9 10,6 4 2 ESE 1011,8 3,0 0,0
18.10.2018 21:00:00 11,0 10,4 4 2 W 1011,1 17 0,4
18.10.2018 20:00:00 11,2 10,7 4 2 N 1010,8 0,7 -
18.10.2018 19:00:00 11,5 10,7 4 2 ENE 1009,8 10 0,4
18.10.2018 18:00:00 11,7 10,6 2 1 S 1009,4 19 0,4
18.10.2018 17:00:00 11,9 10,3 8 4 S 1008,9 20 -
18.10.2018 16:00:00 12,6 9,2 5 3 S 1008,5 20 0,6
18.10.2018 15:00:00 12,9 10,8 13 7 N 1008,5 17 6,0
18.10.2018 14:00:00 15,1 9,5 21 11 WSW 1007,4 20 -
18.10.2018 13:00:00 18,0 11,8 9 5 NNW 1007,2 20 0,0
18.10.2018 12:00:00 18,5 12,0 4 2 NNE 1006,9 20 0,0
18.10.2018 11:00:00 16,8 11,7 4 2 N 1007,6 20 -
18.10.2018 10:00:00 15,2 12,0 4 2 E 1007,7 20 0,0
18.10.2018 09:00:00 13,9 11,4 2 1 SSW 1008,2 18 0,0
18.10.2018 08:00:00 14,2 11,4 5 3 S 1008,4 20 -
18.10.2018 07:00:00 14,5 11,5 4 2 S 1009,1 20 0,0

tt = Température de l'air
td = dewpoint
ff = Vitesse du vent
dd = Direction du vent
ppp = reduced air pressure
vv = visibility
rr = Quantités de précipitations

stations d'obs. à proximité